ARIANE 44L DEB, 32998

Orbit data source: Space-Track

ARIANE 44L DEB, 32998 is space debris in HEO originally from a launch on Tue, 29 Oct 1991 UTC launched from the French Guiana (FRGUI). Debris objects in space refer to the collection of defunct objects orbiting the Earth. Examples of debris include non-operational satellites, rocket bodies, and fragments generated from explosions, collisions, or faulty payload assembly.

Loading next visibility...
Identifier
32998, 1991-075P
Orbit
HEO
Country
Flag of FRFR
Related business
Manufacturer
Unknown
Mission
Spacecraft
Bus & Motor
Unknown
Mass
Unknown
Launch date (UTC)
1991-10-29 (35 years ago)
Launch vehicle
Unknown
Launch site
French Guiana (FRGUI)
Object type
Payload
Rocket body
Debris
Shape & HBR
Unknown shape, 0.4 m
Radar Cross Section
Medium (>0.1 m² and <1 m²)

Expand to show TLE details & history
Last TLE update: 3 weeks ago

TLE from 3 weeks ago
0 ARIANE 44L DEB
1 32998U 91075P   26150.26842109 -.00000179  00000-0 -13569-2 0  9994
2 32998   5.5496  97.9865 6630924 213.3754 329.6069  2.88452142245126
Epoch: 2026-05-30T06:26Z
TLE epoch observation values (Epoch: 2026-05-30T06:26:31.582Z)
Latitude
5.35754°
Longitude
-142.0379°
Altitude
8,530.772 km
Speed
5.861 km/s
True Right ascension
13h 29m 31s
True Declination
5° 20' 32"
Sunlit
Object was in daylight at epoch
Visualization orbit readout
Latitude
Unknown
Longitude
Unknown
Altitude
Unknown
Speed
Unknown
Apparent Right ascension
Unknown
Apparent Declination
Unknown
Sunlit
N/A
Visualization observer readout
Local Sidereal Time
23:08:21
Azimuth
Unknown
Elevation
Unknown
Doppler factor
Unknown
Orbital elements
Apogee altitude
28,298.698 km
Perigee altitude
646.662 km
Semi-major axis
20,850.817 km
Eccentricity
0.66309
Inclination
5.5496°
RAAN
97.9865°
Arg. of periapsis
213.3754°
True anomaly
250.73457°
Mean anomaly
329.6069°
Eccentric anomaly
295.24231°
Mean motion
0.72087 °/min
Orbital period
499.39 mins
BSTAR
-0.0013569
Loading maneuver chart data...
Computing Atmospheric mass density...
Loading historical data...
Loading historical data...
Loading historical data...
Loading historical data...
Loading historical data...
Loading historical data...
Loading historical data...

Documentation

Showing up to 5 results
|